Terminal Aerodrome Forecast
Issued by NWS Dodge City, KS

Home | Current Version | Previous Version | Graphics & Text | Print | Product List | Glossary Off
Versions: 1 2 3 4 5 6 7 8 9 10 11 12 13 14 15 16 17 18 19 20 21 22 23 24 25 26

000
FTUS43 KDDC 231250 AAA
TAFDDC
TAF AMD
KDDC 231250Z 2313/2412 16018G22KT 4SM BR OVC005
     FM231400 17018G29KT P6SM BKN010
     FM231700 18026G34KT P6SM BKN050
      TEMPO 2403/2406 3SM -TSRA BKN050CB
     FM240600 16022G30KT P6SM BKN200=

USA.gov is the U.S. government's official web portal to all federal, state and local government web resources and services.